Orbital Elements at Epoch 2459200.5 (2020-Dec-17.0) TDB
Reference: JPL 19 (heliocentric ecliptic J2000)
Element | Value | Uncertainty (1-sigma) | Units |
e | .2079371707647052 | 3.4751e-08 | |
a | 2.344890880526484 | 7.918e-09 | au |
q | 1.857300905077849 | 8.1542e-08 | au |
i | 3.83178415265958 | 4.1218e-06 | deg |
node | 172.795904991445 | 6.5544e-05 | deg |
peri | 8.329771449654194 | 6.6372e-05 | deg |
M | 281.2060469533607 | 1.1085e-05 | deg |
tp | 2459487.560060387755 (2021-Sep-30.06006039) | 4.1075e-05 | TDB |
period | 1311.542545383176 3.59 | 6.643e-06 1.819e-08 | d yr |
n | .274485948829684 | 1.3903e-09 | deg/d |
Q | 2.832480855975119 | 9.5644e-09 | au |
|
| | Orbit Determination Parameters
Additional Information
|